Content
SEND FEEDBACK

Daily
Averages
Monthly
Summary
United States of America

GLENVIEW, ILLINOIS


Home > North America > United States > Illinois
Elevation: 653 feet     Latitude: 42 05N     Longitude: 087 50W

WEATHER
 
SELECT A DAY
Number of Records: 199,557;   Date Range: 7/8/95 - 12/17/14
 
SHARE

PRINT THIS DATA

[ ← Previous Day ]
WEATHER ALMANAC - FEBRUARY 28, 2013
[ Next Day → ]
[ °C ]   °F
Weather ElementAverageHighLow
Temperature32 °F35.6 °F (11:48 am)27 °F (10:52 pm)
Dewpoint27.6 °F30.9 °F (12:52 am)19.9 °F (9:52 pm)
Humidity84.3 %96 % (12:52 am)72 % (3:52 pm)
Barometer29.92 in30.10 in (8:52 pm)29.71 in (12:32 am)
Wind Speed10.9 mph15 mph (9:50 am)
Wind Gust21.9 mph (10:52 pm)
Weather ElementAverage
Visibility7.2 mi
Wind DirectionWNW (294.4 °)

Weather ElementTotal
Precipitation0.22 in
Heating Degree Days33.7 (Base 65)
Averaged from 39 records on February 28, 2013
WEATHER CONDITIONS BREAKOUT
WIND DIRECTION BREAKOUT
WEATHER BY HOUR - FEBRUARY 28, 2013
[ °C ]   °F
Local TimeTemperatureDewpointHumidityBarometerVisibilityWind DirectionWind SpeedGust SpeedPrecipitationEventsConditions
12:32 AM32.0 °F30.2 °F93 %29.71 in1.8 miNNW (340°)9.2 mph0.00 inSnowLight Snow
12:39 AM32.0 °F30.2 °F93 %29.71 in2.5 miNNW (330°)10.4 mph0.00 inSnowLight Snow
12:52 AM32.0 °F30.9 °F96 %29.74 in4.0 miNNW (330°)10.4 mph0.00 inSnowLight Snow
2:52 AM32.0 °F30.9 °F96 %29.76 in3.0 miNNW (340°)9.2 mph0.01 inSnowLight Snow
2:59 AM32.0 °F30.2 °F93 %29.74 in4.0 miNNW (340°)9.2 mph0.00 inSnowLight Snow
3:15 AM32.0 °F30.2 °F93 %29.75 in5.0 miNNW (340°)11.5 mph17.3 mph0.00 inOvercast
3:52 AM33.1 °F30.9 °F92 %29.78 in6.0 miNNW (340°)9.2 mph0.00 inSnowLight Snow
4:28 AM32.0 °F30.2 °F93 %29.78 in2.5 miNNW (340°)11.5 mph0.00 inSnowLight Snow
4:52 AM32.0 °F30.9 °F96 %29.81 in3.0 miNNW (340°)8.1 mph0.00 inSnowLight Snow
5:27 AM32.0 °F30.2 °F93 %29.81 in7.0 miNNW (340°)10.4 mphOvercast
5:52 AM33.1 °F30.0 °F89 %29.84 in10.0 miNNW (340°)10.4 mphOvercast
6:52 AM33.1 °F30.0 °F89 %29.86 in9.0 miNorth (350°)12.7 mph0.01 inOvercast
7:27 AM33.8 °F30.2 °F87 %29.85 in10.0 miNNW (340°)11.5 mphOvercast
7:52 AM33.1 °F30.0 °F89 %29.89 in10.0 miNNW (340°)10.4 mph0.01 inOvercast
8:25 AM33.8 °F30.2 °F87 %29.88 in5.0 miNNW (340°)9.2 mph18.4 mphOvercast
8:42 AM33.8 °F30.2 °F87 %29.89 in4.0 miNorth (350°)9.2 mph0.01 inOvercast
8:52 AM32.0 °F30.9 °F96 %29.91 in3.0 miNNW (340°)8.1 mph0.01 inOvercast
9:04 AM32.0 °F30.2 °F93 %29.89 in2.0 miNNW (340°)10.4 mph0.00 inSnowLight Snow
9:07 AM32.0 °F30.2 °F93 %29.89 in1.5 miNorth (360°)13.8 mph19.6 mph0.00 inSnowLight Snow
9:50 AM33.8 °F30.2 °F87 %29.91 in4.0 miNorth (350°)15.0 mph0.01 inOvercast
9:52 AM33.1 °F30.0 °F89 %29.93 in4.0 miNorth (350°)13.8 mph19.6 mph0.01 inOvercast
10:33 AM33.8 °F30.2 °F87 %29.92 in10.0 miNorth (360°)11.5 mph17.3 mph0.01 inOvercast
10:52 AM34.0 °F28.9 °F82 %29.95 in10.0 miNorth (350°)13.8 mph0.02 inOvercast
11:48 AM35.6 °F28.4 °F75 %29.93 in10.0 miNorth (350°)12.7 mph20.7 mph0.03 inOvercast
11:52 AM35.1 °F28.0 °F76 %29.95 in10.0 miNorth (360°)12.7 mph19.6 mph0.03 inOvercast
12:52 PM34.0 °F27.0 °F75 %29.96 in10.0 miNorth (360°)15.0 mph0.03 inOvercast
1:52 PM34.0 °F26.1 °F73 %29.97 in10.0 miNorth (360°)12.7 mph0.02 inOvercast
2:52 PM33.1 °F26.1 °F75 %30.00 in10.0 miNorth (10°)11.5 mph19.6 mph0.01 inOvercast
3:52 PM33.1 °F25.0 °F72 %30.02 in10.0 miNorth (350°)9.2 mphOvercast
4:52 PM32.0 °F26.1 °F79 %30.04 in10.0 miNorth (10°)8.1 mphOvercast
5:52 PM30.0 °F24.1 °F79 %30.07 in10.0 miNorth (10°)9.2 mphOvercast
6:52 PM30.0 °F23.0 °F75 %30.08 in10.0 miNorth (10°)8.1 mph17.3 mphOvercast
7:39 PM30.2 °F23.0 °F75 %30.07 in10.0 miNorth (10°)9.2 mphOvercast
7:52 PM30.0 °F21.9 °F72 %30.09 in10.0 miNorth (360°)8.1 mph19.6 mphOvercast
8:17 PM28.4 °F21.2 °F74 %30.07 in10.0 miNorth (10°)12.7 mph20.7 mphOvercast
8:52 PM28.9 °F21.0 °F72 %30.10 in10.0 miNorth (350°)11.5 mphOvercast
9:52 PM28.0 °F19.9 °F72 %30.10 in10.0 miNorth (350°)11.5 mph20.7 mphOvercast
10:52 PM27.0 °F19.9 °F75 %30.09 in10.0 miNorth (350°)13.8 mph21.9 mphOvercast
11:52 PM27.0 °F19.9 °F75 %30.09 in10.0 miNNW (340°)11.5 mph17.3 mphOvercast
Hourly data recorded from KPWK, located miles away from Glenview, Illinois







STORIES FROM OUR PARTNERS